Location: �chenoz-la-M�line
(47.6009°N, 6.1354°E)
Time: 16:51:03
(UTC+00:00)

Cosmos 372 Rocket - Pass Details

Date: 27 January 2021
Orbit: 738 x 768 km, 74.1° (Epoch: 03 March)

Event Time Altitude Azimuth Distance (km) Brightness Sun altitude
Exits shadow 04:40:34 60° 214° (SW) 880 4.0 -24.8°
Drops below altitude 10° 04:45:05 10° 171° (S) 2,292 6.6 -24.0°
Sets 04:47:27 0° 169° (SSE) 3,210 7.4 -23.6°
